Weather in Vurnari

Russia / Chuvash Republic     55°29′25″N   46°57′29″E
temp.,
°C
wind,
m/s
gust,
m/s
humid.,
%
clouds,
%
prec.,
mm/h
press.,
hPa
HPBL,
m
8 march, mon
mon800:00−6ssw51494100 0.8 994665
03:00−4s51296100 2.1 991635
06:00−6w8148997 1.4 992592
09:00−7wsw7138996 1.4 996531
12:00−5wsw7118388 0.1 9981096
15:00−5wsw588361 0.1 999798
18:00−9wnw2291100 0.0 99921
21:00−11wnw3391100 0.0 100225
9 march, tue
tue900:00−13w349653 0.0 100463
03:00−15w349841 0.0 100740
06:00−17w349987 0.0 100852
09:00−14w239593 0.1 1010208
12:00−10nw2388100 0.1 1011469
15:00−11nnw3490100 0.2 1011464
18:00−13nnw3396100 0.1 101268
21:00−14n379699 0.3 1014193
10 march, wed
wed1000:00−18nnw369985 0.1 1014111
03:00−21nnw489987 0.1 1016160
06:00−23nnw499897 0.1 1017220
09:00−23nnw589697 0.1 1019286
12:00−21nnw589489 0.0 1020406
15:00−19nnw589094 0.0 1021557
18:00−22nnw479566 0.0 1023104
21:00−24nnw349633 0.0 102462
11 march, thu
thu1100:00−25nw34980 0.0 102555
03:00−25wnw4410041 0.0 102680
06:00−25wnw479955 0.0 1026115
09:00−20w6109660 0.0 1026263
12:00−15wnw61193100 0.1 1025436
15:00−12wnw5993100 0.3 1025505
18:00−13wnw4896100 0.1 1026198
21:00−14wnw4698100 0.2 1028129
12 march, fri
fri1200:00−17wnw349894 0.0 102947
03:00−18w339873 0.1 103025
06:00−19w349914 0.0 103140
09:00−15w249313 0.0 1032161
12:00−10wsw238520 0.0 1031363
15:00−8sw348829 0.0 1030441
18:00−13ssw349474 0.0 102936
21:00−16s349537 0.0 102937